Location: Albuquerque Trailhead
(34.7934°N, 106.3736°W)
Time: 00:42:02
(UTC+00:00)

SPOT 1/Viking Rocket - Pass Details

Date: 20 June 2021
Orbit: 778 x 793 km, 98.4° (Epoch: 01 August)

Event Time Altitude Azimuth Distance (km) Brightness Sun altitude
Exits shadow 03:54:25 26° 138° (SE) 1,499 4.4 -16.0°
Maximum altitude 03:57:08 53° 73° (ENE) 951 3.8 -16.4°
Drops below altitude 10° 04:02:07 10° 358° (N) 2,334 6.7 -17.1°
Sets 04:04:29 0° 354° (N) 3,266 7.6 -17.4°
